Corpus Christi, TX

6:42 PM CST on February 23, 2018 (GMT -0600)
Corpus Christi International

Weather History for KCRP - March, 2013

Change the Weather History Date:

Tuesday, March 26, 2013

  Actual Average Record
Temperature  
Mean Temperature 58 °F 68 °F  
Max Temperature 69 °F 78 °F 94 °F (1939)
Min Temperature 47 °F 58 °F 34 °F (1969)
Degree Days  
Heating Degree Days 7 2  
Month to date heating degree days 59 75  
Since 1 July heating degree days 511 875  
Cooling Degree Days 0 5  
Month to date cooling degree days 116 90  
Year to date cooling degree days 260 166  
Growing Degree Days 10 (Base 50)    
Moisture  
Dew Point 29 °F    
Average Humidity 34    
Maximum Humidity 46    
Minimum Humidity 21    
Precipitation  
Precipitation 0.00 in 0.07 in 1.67 in (1943)
Month to date precipitation 0.06 1.63  
Year to date precipitation 1.75 5.10  
Snow  
Snow 0.00 in - - ()
Month to date snowfall 0.0  
Since 1 July snowfall 0.0  
Snow Depth 0.00 in    
Sea Level Pressure  
Sea Level Pressure 30.38 in    
Wind  
Wind Speed 13 mph (East)    
Max Wind Speed 20 mph    
Max Gust Speed 26 mph    
Visibility 10 miles    
Events      
T = Trace of Precipitation, MM = Missing Value Source: NWS Daily Summary

Daily Weather History Graph

Daily Weather History Graph

Search for Another Location

Airport or City:

Trip Planner

Search our weather history database for the weather conditions in past years. The results will help you decide how hot, cold, wet, or windy it might be!

Date:

Astronomy

Mar. 26, 2013 Rise Set
Actual Time 7:26 AM CDT 7:44 PM CDT
Civil Twilight 7:03 AM CDT 8:08 PM CDT
Nautical Twilight 6:36 AM CDT 8:35 PM CDT
Astronomical Twilight 6:08 AM CDT 9:03 PM CDT
Moon 7:21 PM CDT (3/26) 6:42 AM CDT (3/26)
Length of Visible Light 13h 04m
Length of Day
12h 17m
Waxing Gibbous, 99% of the Moon is Illuminated
Mar 26
Waxing Gibbous
Mar 27
Full
Apr 2
Last Quarter
Apr 10
New
Apr 18
First Quarter

Hourly Weather History & Observations

Time (CDT) Temp. Dew Point Humidity Pressure Visibility Wind Dir Wind Speed Gust Speed Precip Events Conditions
12:51 AM 55.0 °F 32.0 °F 42% 30.36 in 10.0 mi NE 9.2 mph - N/A   Clear
1:51 AM 57.0 °F 28.0 °F 33% 30.36 in 10.0 mi NE 12.7 mph - N/A   Clear
2:51 AM 55.9 °F 28.0 °F 34% 30.36 in 10.0 mi NE 12.7 mph - N/A   Clear
3:51 AM 55.0 °F 28.9 °F 37% 30.36 in 10.0 mi NE 16.1 mph - N/A   Clear
4:51 AM 54.0 °F 30.0 °F 40% 30.37 in 10.0 mi NE 15.0 mph - N/A   Clear
5:51 AM 53.1 °F 28.9 °F 40% 30.38 in 10.0 mi NE 18.4 mph - N/A   Clear
6:51 AM 52.0 °F 28.9 °F 41% 30.41 in 10.0 mi NE 15.0 mph - N/A   Clear
7:51 AM 50.0 °F 30.9 °F 48% 30.43 in 10.0 mi NE 9.2 mph - N/A   Clear
8:51 AM 55.0 °F 34.0 °F 45% 30.46 in 10.0 mi NNE 12.7 mph - N/A   Clear
9:51 AM 60.1 °F 34.0 °F 38% 30.47 in 10.0 mi ENE 12.7 mph - N/A   Clear
10:51 AM 64.0 °F 27.0 °F 25% 30.46 in 10.0 mi NE 15.0 mph 24.2 mph N/A   Clear
11:51 AM 64.9 °F 27.0 °F 24% 30.45 in 10.0 mi East 15.0 mph - N/A   Clear
12:51 PM 66.0 °F 28.9 °F 25% 30.43 in 10.0 mi East 16.1 mph 23.0 mph N/A   Clear
1:51 PM 68.0 °F 28.9 °F 23% 30.40 in 10.0 mi East 16.1 mph 23.0 mph N/A   Partly Cloudy
2:51 PM 68.0 °F 26.1 °F 21% 30.38 in 10.0 mi ESE 13.8 mph 23.0 mph N/A   Partly Cloudy
3:51 PM 66.9 °F 27.0 °F 22% 30.36 in 10.0 mi East 15.0 mph - N/A   Partly Cloudy
4:51 PM 66.0 °F 28.0 °F 24% 30.35 in 10.0 mi SE 12.7 mph 20.7 mph N/A   Partly Cloudy
5:51 PM 64.9 °F 28.9 °F 26% 30.33 in 10.0 mi SE 17.3 mph - N/A   Partly Cloudy
6:51 PM 63.0 °F 28.0 °F 27% 30.34 in 10.0 mi SE 15.0 mph - N/A   Partly Cloudy
7:51 PM 60.1 °F 28.9 °F 31% 30.35 in 10.0 mi SSE 13.8 mph - N/A   Partly Cloudy
8:51 PM 57.0 °F 28.9 °F 34% 30.35 in 10.0 mi SSE 10.4 mph - N/A   Partly Cloudy
9:51 PM 54.0 °F 28.9 °F 38% 30.36 in 10.0 mi SSE 6.9 mph - N/A   Clear
10:51 PM 52.0 °F 28.9 °F 41% 30.36 in 10.0 mi SSE 8.1 mph - N/A   Clear
11:51 PM 50.0 °F 28.9 °F 44% 30.35 in 10.0 mi SSE 6.9 mph - N/A   Clear